Location: Jackson Park
(37.2862°N, 79.9123°W)
Time: 21:26:36
(UTC+00:00)

Transit 4A - Pass Details

Date: 14 May 2026
Orbit: 860 x 980 km, 66.8° (Epoch: 9 June)

Event Time Altitude Azimuth Distance (km) Brightness Sun altitude
Rises 00:23:56 0° 313° (NW) 3,686 12.8 -1.6°
Reaches altitude 10° 00:27:37 10° 292° (WNW) 2,728 12.5 -2.2°
Maximum altitude 00:31:09 16° 258° (WSW) 2,330 10.9 -2.8°
Drops below altitude 10° 00:34:40 10° 224° (SW) 2,695 10.6 -3.5°
Sets 00:38:19 0° 203° (SSW) 3,617 10.9 -4.1°
